Location: Ackerson Creek
(37.8210°N, 119.8757°W)
Time: 15:53:32
(UTC+00:00)

Cosmos 1470 Rocket - Pass Details

Date: 13 April 2024
Orbit: 601 x 629 km, 82.5° (Epoch: 23 May)

Event Time Altitude Azimuth Distance (km) Brightness Sun altitude
Rises 12:23:35 0° 351° (N) 2,888 7.2 -12.6°
Reaches altitude 10° 12:25:48 10° 350° (N) 1,984 6.3 -12.2°
Maximum altitude 12:30:11 79° 266° (W) 636 3.5 -11.4°
Drops below altitude 10° 12:34:35 10° 178° (S) 1,986 6.0 -10.6°
Sets 12:36:49 0° 177° (S) 2,891 6.8 -10.2°
